Location: Kergonan
(48.2337°N, 4.5518°W)
Time: 12:23:05
(UTC+00:00)

Meteor 2-15 Rocket - Pass Details

Date: 18 January 2020
Orbit: 939 x 956 km, 82.5° (Epoch: 17 February)

Event Time Altitude Azimuth Distance (km) Brightness Sun altitude
Rises 05:08:41 0° 190° (S) 3,610 7.4 -28.4°
Enters shadow 05:09:31 - 190° (S) 3,289 7.2 -28.2°
Exits shadow 05:13:40 26° 193° (SSW) 1,762 5.7 -27.6°
Maximum altitude 05:17:17 83° 279° (W) 968 4.3 -27.0°
Drops below altitude 10° 05:23:29 10° 9° (N) 2,697 6.9 -25.9°
Sets 05:26:00 0° 10° (N) 3,647 7.6 -25.5°
